Shannon, Ireland

9:39 AM IST on September 29, 2016 (GMT +0100)
Shannon

Weather History for EINN - December, 2012

Change the Weather History Date:

Thursday, December 13, 2012

  Actual Average Record
Temperature  
Mean Temperature 42 °F -  
Max Temperature 48 °F 49 °F 122 °F (2005)
Min Temperature 37 °F 39 °F 28 °F (1996)
Degree Days  
Heating Degree Days 24    
Moisture  
Dew Point 38 °F    
Average Humidity 85    
Maximum Humidity 100    
Minimum Humidity 70    
Precipitation  
Precipitation 0.00 in - - ()
Sea Level Pressure  
Sea Level Pressure 29.43 in    
Wind  
Wind Speed 14 mph ()    
Max Wind Speed 23 mph    
Max Gust Speed -    
Visibility 6.3 miles    
Events Rain    
Averages and records for this station are not official NWS values.
T = Trace of Precipitation, MM = Missing Value Source: Averaged Metar Reports

Daily Weather History Graph

Daily Weather History Graph

Search for Another Location

Airport or City:

Trip Planner

Search our weather history database for the weather conditions in past years. The results will help you decide how hot, cold, wet, or windy it might be!

Date:

Astronomy

Dec. 13, 2012 Rise Set
Actual Time 8:39 AM GMT 4:20 PM GMT
Civil Twilight 7:57 AM GMT 5:02 PM GMT
Nautical Twilight 7:13 AM GMT 5:46 PM GMT
Astronomical Twilight 6:31 AM GMT 6:28 PM GMT
Moon 8:31 AM GMT (12/13) 4:50 PM GMT (12/13)
Length of Visible Light 9h 04m
Length of Day
7h 40m
New Moon, 0% of the Moon is Illuminated
Dec 13
New Moon
Dec 20
First Quarter
Dec 28
Full
Jan 5
Last Quarter
Jan 11
New

Hourly Weather History & Observations

Time (GMT) Temp. Windchill Dew Point Humidity Pressure Visibility Wind Dir Wind Speed Gust Speed Precip Events Conditions
12:00 AM 45 °F - 42 °F 83% 29.66 in 12 mi SE 15.7 mph - - Rain Light Drizzle
12:00 AM 44.6 °F 37.4 °F 41.0 °F 87% 29.65 in 6.2 mi SE 16.1 mph - N/A   Overcast
12:30 AM 44.6 °F 37.4 °F 41.0 °F 87% 29.65 in 6.2 mi SE 16.1 mph - N/A   Overcast
1:00 AM 44.6 °F 38.1 °F 41.0 °F 87% 29.62 in 6.2 mi SE 13.8 mph - N/A   Mostly Cloudy
1:30 AM 44.6 °F 37.8 °F 41.0 °F 87% 29.62 in 6.2 mi ESE 15.0 mph - N/A   Scattered Clouds
2:00 AM 44.6 °F 37.8 °F 39.2 °F 81% 29.62 in 6.2 mi SE 15.0 mph - N/A   Mostly Cloudy
2:30 AM 42.8 °F 35.8 °F 39.2 °F 87% 29.62 in 6.2 mi ESE 13.8 mph - N/A   Scattered Clouds
3:00 AM 42.8 °F 35.1 °F 37.4 °F 81% 29.62 in 6.2 mi SE 16.1 mph - N/A   Mostly Cloudy
3:30 AM 42.8 °F 34.8 °F 37.4 °F 81% 29.59 in 6.2 mi SE 17.3 mph - N/A   Scattered Clouds
4:00 AM 41.0 °F 34.3 °F 35.6 °F 81% 29.59 in 6.2 mi ESE 11.5 mph - N/A   Partly Cloudy
4:30 AM 39.2 °F 33.6 °F 35.6 °F 87% 29.59 in 6.2 mi East 8.1 mph - N/A   Partly Cloudy
5:00 AM 39.2 °F 32.0 °F 35.6 °F 87% 29.56 in 6.2 mi East 11.5 mph - N/A   Partly Cloudy
5:30 AM 37.4 °F 30.3 °F 35.6 °F 93% 29.56 in 6.2 mi East 10.4 mph - N/A   Partly Cloudy
6:00 AM 38 °F - 35 °F 86% 29.58 in 12 mi East 11.2 mph - -   Partly Cloudy
6:00 AM 37.4 °F 30.3 °F 35.6 °F 93% 29.56 in 6.2 mi East 10.4 mph - N/A   Scattered Clouds
6:30 AM 37.4 °F 30.3 °F 35.6 °F 93% 29.56 in 6.2 mi East 10.4 mph - N/A   Partly Cloudy
7:00 AM 37.4 °F 30.8 °F 35.6 °F 93% 29.56 in 6.2 mi East 9.2 mph - N/A   Scattered Clouds
7:30 AM 39.2 °F 32.0 °F 33.8 °F 81% 29.53 in 6.2 mi East 11.5 mph - N/A   Partly Cloudy
8:00 AM 37.4 °F 29.8 °F 33.8 °F 87% 29.53 in 6.2 mi ESE 11.5 mph - N/A   Partly Cloudy
8:30 AM 37.4 °F 29.3 °F 35.6 °F 93% 29.53 in 6.2 mi East 12.7 mph - N/A   Partly Cloudy
9:00 AM 37.4 °F 29.8 °F 33.8 °F 87% 29.50 in 6.2 mi ESE 11.5 mph - N/A   Partly Cloudy
9:30 AM 37.4 °F 28.5 °F 33.8 °F 87% 29.50 in 6.2 mi ESE 15.0 mph - N/A   Scattered Clouds
10:00 AM 37.4 °F 29.3 °F 33.8 °F 87% 29.50 in 6.2 mi ESE 12.7 mph - N/A   Scattered Clouds
10:30 AM 39.2 °F 31.2 °F 33.8 °F 81% 29.50 in 6.2 mi ESE 13.8 mph - N/A   Scattered Clouds
11:00 AM 41.0 °F 32.8 °F 33.8 °F 76% 29.47 in - ESE 16.1 mph - N/A   Clear
11:30 AM 41.0 °F 33.9 °F 35.6 °F 81% 29.47 in - ESE 12.7 mph - N/A   Clear
12:00 PM 42 °F - 36 °F 70% 29.47 in 12 mi ESE 15.7 mph - -   Scattered Clouds
12:00 PM 42.8 °F 35.4 °F 35.6 °F 76% 29.44 in 6.2 mi ESE 15.0 mph - N/A   Mostly Cloudy
12:30 PM 44.6 °F 36.6 °F 35.6 °F 71% 29.44 in 6.2 mi SE 19.6 mph - N/A   Mostly Cloudy
1:00 PM 44.6 °F 36.6 °F 35.6 °F 71% 29.44 in 6.2 mi SE 19.6 mph - N/A   Mostly Cloudy
1:30 PM 44.6 °F 36.6 °F 35.6 °F 71% 29.44 in 6.2 mi SE 19.6 mph - N/A   Mostly Cloudy
2:00 PM 42.8 °F 35.4 °F 33.8 °F 70% 29.42 in 6.2 mi SE 15.0 mph - N/A   Mostly Cloudy
2:30 PM 42.8 °F 35.1 °F 35.6 °F 76% 29.39 in 6.2 mi ESE 16.1 mph - N/A   Mostly Cloudy
3:00 PM 42.8 °F 34.8 °F 35.6 °F 76% 29.39 in 6.2 mi SE 17.3 mph - N/A   Mostly Cloudy
3:30 PM 42.8 °F 35.8 °F 35.6 °F 76% 29.36 in 6.2 mi East 13.8 mph - N/A   Mostly Cloudy
4:00 PM 42.8 °F 35.8 °F 35.6 °F 76% 29.36 in 6.2 mi ESE 13.8 mph - N/A   Light Drizzle
4:30 PM 42.8 °F 35.1 °F 37.4 °F 81% 29.33 in 6.2 mi East 16.1 mph - N/A   Light Drizzle
5:00 PM 42.8 °F 34.0 °F 37.4 °F 81% 29.30 in 6.2 mi ESE 20.7 mph - N/A   Mostly Cloudy
5:30 PM 42.8 °F 34.0 °F 37.4 °F 81% 29.27 in 6.2 mi ESE 20.7 mph - N/A   Overcast
6:00 PM 42 °F - 39 °F 83% 29.28 in 7 mi ESE 22.4 mph - - Rain Light Drizzle
6:00 PM 41.0 °F 31.1 °F 39.2 °F 93% 29.27 in 6.2 mi ESE 23.0 mph - N/A   Light Drizzle
6:30 PM 41.0 °F 32.5 °F 39.2 °F 93% 29.27 in 3.7 mi East 17.3 mph - N/A   Light Drizzle
7:00 PM 42.8 °F 35.1 °F 41.0 °F 93% 29.24 in 3.1 mi ESE 16.1 mph - N/A   Light Drizzle
7:30 PM 42.8 °F 35.1 °F 41.0 °F 93% 29.24 in 4.3 mi ESE 16.1 mph - N/A   Light Drizzle
8:00 PM 42.8 °F 34.8 °F 41.0 °F 93% 29.21 in 4.3 mi East 17.3 mph - N/A   Light Drizzle
8:30 PM 42.8 °F 34.5 °F 42.8 °F 100% 29.21 in 5.0 mi East 18.4 mph - N/A   Light Drizzle
9:00 PM 42.8 °F 35.1 °F 42.8 °F 100% 29.18 in 5.0 mi East 16.1 mph - N/A   Light Drizzle
9:30 PM 42.8 °F 34.8 °F 42.8 °F 100% 29.15 in 5.0 mi East 17.3 mph - N/A   Light Drizzle
10:00 PM 46.4 °F 39.8 °F 44.6 °F 93% 29.12 in 6.2 mi ESE 16.1 mph - N/A   Mostly Cloudy
10:30 PM 46.4 °F 39.2 °F 42.8 °F 87% 29.12 in 6.2 mi SE 18.4 mph - N/A   Mostly Cloudy
11:30 PM 48.2 °F - 42.8 °F 82% 29.06 in 6.2 mi SE 21.9 mph - N/A   Mostly Cloudy